Location: Newark
(42.8481°N, 0.4872°E)
Time: 23:48:46
(UTC+00:00)

Transit 2A Rocket - Pass Details

Date: 05 November 2020
Orbit: 588 x 914 km, 66.7° (Epoch: 29 November)

Event Time Altitude Azimuth Distance (km) Brightness Sun altitude
Rises 06:46:54 0° 185° (S) 3,530 8.7 0.7°
Reaches altitude 10° 06:49:34 10° 178° (S) 2,594 8.1 1.2°
Maximum altitude 06:55:09 39° 112° (ESE) 1,325 7.3 2.1°
Drops below altitude 10° 07:00:36 10° 45° (NE) 2,530 8.0 3.0°
Sets 07:03:10 0° 38° (NE) 3,433 8.5 3.4°
